Location: *
(39.6167°S, 171.5333°W)
Time: 04:46:25
(UTC+00:00)

NOSS 3-1 (C) - Pass Details

Date: 13 May 2021
Orbit: 728 x 1480 km, 63.4° (Epoch: 14 June)

Event Time Altitude Azimuth Distance (km) Brightness Sun altitude
Exits shadow 17:23:40 - 223° (SW) 2,732 5.3 -11.5°
Reaches altitude 10° 17:23:51 10° 223° (SW) 2,659 5.3 -11.5°
Maximum altitude 17:29:38 48° 295° (WNW) 1,080 3.5 -10.4°
Drops below altitude 10° 17:34:38 10° 9° (N) 2,297 5.8 -9.5°
Sets 17:36:57 0° 15° (NNE) 3,173 6.7 -9.0°
